Wind_Speed
6 6 6 6 7 6 4 5 5 5 5 5 5 4 4 4 4 4 4 4 4 4 4 4 3 3 4 4 4 5 5 6 6 6 7 7 7 8 8 8 8 9 9
5 6 6 5 5 5 4 3 3 3 3 3 3 3 3 4 4 3 3 3 3 4 4 4 4 4 4 5 5 6 7 7 7 8 9 9 10 10 10 10 10 11 11
5 6 5 5 4 5 4 3 2 2 1 1 1 1 1 3 3 2 2 3 4 4 4 4 4 5 5 6 6 7 7 8 9 9 10 11 11 11 12 13 13 12 12
7 7 6 5 5 6 5 4 3 2 2 1 1 1 2 2 2 3 3 4 4 4 5 5 5 6 7 7 8 8 8 9 9 9 9 10 11 11 13 13 14 14 13
9 8 7 7 7 7 6 6 4 4 4 4 3 3 4 4 4 4 4 5 6 6 7 7 8 8 8 9 9 10 10 10 11 11 11 11 11 12 13 14 15 15 15
9 8 7 7 8 8 7 7 6 5 5 5 5 5 6 5 5 5 6 7 7 8 8 9 9 9 10 11 11 11 11 11 12 12 12 13 13 14 14 14 15 16 16
10 9 8 8 9 9 9 9 8 7 7 6 7 7 7 7 7 7 8 8 8 9 10 10 10 11 12 13 13 13 13 13 13 13 14 14 15 15 15 15 16 16 17
11 10 10 10 10 10 11 10 9 9 10 9 9 9 9 9 9 9 8 9 10 10 11 11 11 12 13 13 14 14 15 15 15 15 15 15 15 16 17 17 17 17 17
13 12 11 10 11 12 12 12 12 12 11 11 12 11 11 11 11 11 11 10 11 12 13 14 14 14 14 14 14 15 15 16 17 17 17 17 17 18 19 19 18 18 18
14 13 14 13 13 13 13 13 14 13 13 14 14 13 12 12 12 13 14 14 15 15 15 16 16 16 16 16 17 17 18 18 19 18 18 19 20 20 20 20 20 20 20
16 16 16 16 15 14 14 14 15 15 15 15 16 16 15 14 14 15 15 16 17 17 17 17 18 18 18 18 19 20 20 20 21 20 20 21 21 21 21 21 21 21 21
18 17 18 18 18 17 17 18 17 17 16 16 17 18 17 17 17 17 17 18 18 19 19 18 19 19 19 20 20 21 21 21 21 22 22 22 23 23 23 23 22 22 22
22 20 20 20 21 20 21 21 20 19 19 19 19 19 20 20 19 19 19 20 20 21 21 20 20 20 21 21 22 22 22 22 22 23 23 24 24 24 24 24 24 24 24
25 24 23 22 22 22 22 23 22 21 21 21 21 20 21 21 21 22 22 22 22 21 22 21 22 22 23 23 23 24 24 23 24 25 25 25 26 26 26 26 26 26 26
27 27 26 24 23 23 24 24 24 23 23 23 22 22 22 23 23 23 24 24 24 23 23 24 25 25 25 25 25 25 25 25 26 27 27 28 28 28 29 29 29 29 29
29 29 29 27 26 26 25 26 26 25 25 25 24 24 25 25 26 26 26 27 26 26 26 27 27 27 27 27 27 28 27 27 28 29 30 30 31 31 31 32 32 32 32
30 31 31 31 30 29 29 29 29 28 27 27 27 28 28 28 28 28 29 29 29 29 29 30 30 30 30 30 30 31 30 30 30 31 32 32 33 34 34 34 35 35 35
33 33 33 32 32 32 32 31 31 31 30 30 30 31 32 31 30 30 30 30 30 31 31 31 32 33 32 33 33 33 33 33 33 33 34 35 36 36 36 36 36 36 36
35 35 35 34 34 34 33 33 32 32 32 32 33 33 33 32 31 30 29 30 32 32 32 33 34 34 35 35 35 36 36 36 35 35 35 36 37 37 36 37 38 37 36
37 37 36 36 35 35 35 35 34 35 34 35 35 34 34 33 31 31 31 32 32 33 33 34 34 34 34 35 36 37 37 37 37 37 37 36 37 36 36 36 37 36 35
38 37 37 36 36 35 35 35 35 35 35 34 34 34 33 31 31 31 32 33 34 34 34 34 35 35 35 36 38 39 39 38 38 37 37 36 36 36 36 37 37 36 36
36 36 35 36 36 36 35 35 36 36 35 34 34 33 33 32 32 32 33 34 34 35 35 36 37 37 37 38 39 39 39 38 36 36 37 36 36 36 37 37 38 38 38
36 36 35 35 36 36 36 36 36 35 35 35 34 35 34 34 34 34 34 35 35 35 37 37 38 39 39 39 39 39 38 38 38 37 38 38 37 37 38 38 38 39 39
36 36 35 35 35 36 36 36 36 36 36 35 35 35 35 35 35 35 36 37 37 37 37 38 39 39 40 40 40 39 39 39 39 38 38 38 38 38 38 39 39 39 39
36 36 36 36 36 36 36 36 37 36 35 35 36 36 36 36 37 38 38 39 39 39 39 39 39 39 39 39 39 39 39 38 37 37 37 38 39 39 39 39 39 40 40
36 35 35 36 37 36 35 35 34 34 34 34 34 36 37 37 38 39 39 40 41 40 40 40 39 39 39 38 39 38 38 38 37 37 37 37 38 39 40 40 40 40 41
Wind_Direction
21 21 18 18 14 21 34 53 55 59 66 76 88 98 108 119 127 131 140 151 169 182 193 204 211 215 221 221 224 232 241 249 254 257 259 262 260 263 266 271 271 270 272
359 9 10 4 1 1 2 33 43 39 48 66 72 78 111 131 139 147 161 176 188 201 206 212 220 228 228 236 241 244 247 252 257 259 260 266 266 266 266 270 272 271 273
322 330 341 340 339 336 344 355 5 354 1 55 61 47 116 160 170 182 191 203 210 215 216 221 230 240 244 248 252 256 253 257 262 263 266 268 265 267 271 272 274 274 275
303 311 315 310 309 309 317 325 322 304 285 288 274 262 260 229 224 224 229 230 228 231 239 243 242 248 254 258 261 263 262 264 264 266 272 271 268 269 273 275 276 276 277
296 300 302 295 291 293 298 304 302 292 271 269 275 272 270 261 247 249 249 246 240 240 245 251 251 256 262 267 269 270 268 267 269 269 273 275 276 274 273 275 277 278 278
285 288 289 290 288 288 289 291 292 279 260 258 262 268 266 260 255 262 259 251 247 248 253 256 261 261 264 269 270 268 267 270 268 269 271 274 277 277 277 276 277 278 278
278 277 279 284 288 291 290 285 283 282 267 263 265 265 268 267 263 264 264 261 259 258 259 259 264 261 265 268 268 267 269 272 271 271 270 271 274 276 277 277 277 277 277
277 277 272 277 281 283 283 278 274 276 270 269 272 264 268 268 265 265 269 269 265 264 262 263 265 264 265 268 267 266 267 271 272 273 273 272 271 274 276 279 280 278 278
276 277 275 277 277 277 277 275 269 273 271 267 273 268 264 264 263 264 267 269 269 264 262 262 264 268 270 271 271 268 269 271 271 272 272 272 274 277 278 278 279 279 279
275 274 276 278 280 279 273 273 266 269 272 271 272 269 263 264 264 265 264 265 267 267 266 264 266 269 270 271 273 274 271 271 270 271 273 274 275 276 276 277 277 278 277
271 271 272 275 276 277 274 275 273 275 279 279 276 270 264 264 266 268 268 267 269 271 272 272 270 270 271 272 274 276 273 271 270 268 271 274 275 276 276 276 275 276 276
264 268 270 271 272 274 275 276 276 276 280 281 282 274 265 264 265 268 269 268 271 274 272 274 276 273 273 275 276 277 276 274 271 269 270 272 274 274 275 276 275 275 274
261 265 267 269 269 272 274 274 273 274 277 280 281 281 269 266 266 267 269 269 269 270 271 272 275 276 275 276 277 277 275 275 271 269 270 272 273 273 274 275 275 275 274
263 265 267 272 270 272 273 273 273 275 276 278 278 280 275 269 267 267 267 268 269 270 271 270 273 274 274 277 278 279 277 275 273 272 272 272 273 273 273 274 274 274 274
262 266 269 269 270 272 273 272 272 273 274 274 275 275 271 269 268 268 268 268 268 269 271 272 274 274 274 276 278 279 279 276 274 274 274 274 273 272 273 273 273 273 273
265 268 270 270 270 270 269 268 268 269 270 271 271 271 271 269 270 268 269 268 267 268 271 273 275 275 276 277 279 279 277 277 276 274 274 275 274 274 273 273 272 272 273
266 268 271 270 270 268 268 269 267 266 268 269 269 270 272 271 271 270 270 270 270 270 270 272 274 274 276 277 279 277 277 276 276 276 275 275 275 275 273 273 273 273 273
266 267 270 270 270 268 267 269 269 268 268 269 269 269 270 270 271 270 271 272 272 272 271 272 272 274 275 276 276 276 275 276 276 276 276 275 275 274 273 272 272 272 272
265 267 268 268 268 268 269 271 270 270 269 268 269 269 270 270 269 269 271 272 272 273 274 274 272 273 274 274 275 275 274 275 275 275 275 276 275 275 275 274 273 273 272
266 267 267 268 268 268 268 269 269 270 271 271 270 270 269 268 269 270 270 272 274 274 276 276 274 273 273 275 275 276 274 274 273 274 275 275 275 275 275 274 274 274 273
267 267 267 267 267 268 268 268 268 268 269 270 270 268 266 267 269 272 273 273 275 276 277 276 275 275 275 275 276 277 276 274 274 274 274 274 274 273 274 274 275 273 273
266 266 266 266 266 266 266 265 266 267 267 267 268 267 267 268 269 272 274 275 276 276 276 277 276 276 277 277 278 278 276 277 276 274 274 273 273 273 273 274 274 274 273
265 264 265 266 266 265 265 265 266 267 267 267 267 267 268 269 271 272 274 275 276 277 277 277 278 278 279 279 280 279 278 279 278 277 274 272 272 273 274 274 274 273 273
265 264 265 266 266 266 266 266 266 267 267 266 265 266 268 269 271 273 274 276 277 278 278 278 279 280 280 279 280 280 280 280 279 279 277 275 274 274 275 275 274 274 273
263 264 265 265 266 267 268 268 267 267 266 265 266 267 268 269 271 273 274 275 276 277 278 278 279 280 281 281 281 281 279 279 278 279 278 277 275 275 275 275 275 275 275
263 263 264 265 265 267 268 269 271 268 266 266 266 267 269 270 271 272 274 275 277 278 278 278 277 278 279 279 280 279 279 279 278 278 278 278 277 277 276 276 276 275 274
Height
5889 5888 5886 5886 5885 5884 5883 5882 5882 5881 5881 5880 5880 5880 5880 5881 5881 5881 5882 5882 5883 5883 5884 5884 5885 5885 5886 5886 5887 5888 5889 5889 5890 5891 5891 5891 5891 5892 5892 5892 5892 5892 5892
5889 5888 5887 5886 5885 5884 5884 5883 5882 5882 5882 5881 5881 5880 5880 5881 5881 5882 5882 5883 5883 5883 5884 5884 5885 5885 5885 5886 5886 5887 5887 5888 5889 5889 5889 5889 5890 5890 5890 5890 5890 5890 5890
5889 5888 5887 5886 5886 5885 5884 5883 5883 5882 5882 5881 5882 5881 5881 5881 5882 5882 5882 5883 5883 5883 5883 5884 5884 5885 5885 5885 5886 5886 5886 5887 5887 5887 5887 5887 5887 5887 5888 5888 5888 5887 5887
5888 5887 5887 5886 5885 5884 5883 5883 5882 5882 5882 5882 5881 5881 5881 5881 5881 5881 5882 5882 5882 5882 5883 5883 5883 5884 5884 5884 5884 5884 5884 5885 5885 5885 5885 5885 5885 5885 5885 5885 5885 5885 5884
5886 5886 5885 5885 5884 5883 5883 5882 5881 5881 5880 5880 5880 5880 5881 5881 5881 5881 5881 5881 5881 5881 5882 5882 5882 5882 5882 5882 5882 5882 5882 5883 5883 5883 5882 5882 5882 5882 5883 5882 5882 5882 5881
5884 5884 5883 5883 5882 5882 5881 5880 5880 5879 5879 5879 5878 5879 5880 5879 5879 5879 5879 5879 5879 5879 5880 5880 5880 5880 5881 5881 5880 5880 5880 5880 5880 5880 5880 5880 5880 5880 5879 5879 5879 5878 5878
5881 5881 5881 5881 5880 5880 5879 5879 5878 5878 5877 5877 5877 5877 5878 5878 5878 5877 5877 5877 5877 5877 5877 5878 5878 5878 5878 5878 5878 5878 5878 5878 5877 5877 5877 5877 5877 5876 5876 5876 5875 5875 5875
5878 5878 5878 5877 5877 5877 5876 5876 5876 5876 5875 5875 5875 5875 5875 5876 5875 5875 5875 5875 5875 5875 5875 5875 5875 5875 5875 5875 5875 5875 5874 5874 5874 5874 5874 5873 5873 5873 5872 5872 5872 5871 5871
5874 5874 5874 5873 5873 5873 5873 5873 5873 5872 5872 5872 5872 5872 5872 5872 5872 5872 5872 5872 5872 5872 5872 5872 5872 5871 5871 5871 5871 5871 5870 5870 5870 5870 5870 5870 5869 5869 5868 5868 5867 5867 5867
5870 5870 5870 5870 5869 5869 5869 5869 5869 5869 5869 5868 5868 5868 5868 5868 5868 5869 5869 5869 5869 5868 5868 5867 5868 5867 5867 5867 5867 5866 5866 5866 5866 5866 5866 5865 5865 5865 5864 5863 5863 5862 5862
5865 5865 5866 5865 5865 5865 5865 5865 5865 5865 5865 5865 5864 5864 5864 5864 5864 5864 5864 5864 5864 5864 5863 5863 5863 5863 5862 5862 5862 5861 5861 5861 5861 5861 5861 5860 5860 5860 5859 5858 5858 5857 5857
5859 5860 5861 5861 5861 5861 5860 5860 5860 5860 5860 5860 5859 5859 5859 5859 5859 5859 5859 5859 5859 5859 5858 5858 5858 5858 5857 5857 5856 5856 5855 5855 5855 5855 5855 5854 5854 5854 5854 5853 5852 5852 5851
5854 5855 5855 5856 5856 5855 5855 5855 5855 5855 5854 5853 5853 5853 5852 5853 5853 5853 5853 5853 5853 5852 5852 5853 5853 5852 5852 5851 5850 5850 5849 5849 5849 5849 5848 5848 5848 5848 5847 5847 5846 5846 5845
5847 5848 5849 5849 5849 5850 5850 5849 5849 5849 5849 5848 5848 5847 5846 5846 5847 5847 5847 5847 5847 5847 5846 5846 5846 5846 5845 5844 5844 5843 5842 5842 5842 5842 5842 5841 5841 5841 5840 5840 5839 5839 5839
5840 5841 5842 5842 5843 5843 5843 5842 5842 5842 5842 5842 5842 5841 5841 5840 5840 5840 5840 5840 5840 5840 5840 5840 5839 5839 5838 5837 5837 5836 5835 5835 5835 5835 5835 5834 5834 5833 5833 5832 5832 5831 5831
5832 5833 5834 5834 5835 5835 5835 5835 5835 5835 5835 5835 5835 5835 5834 5834 5834 5833 5833 5832 5833 5833 5833 5833 5832 5831 5830 5830 5830 5829 5829 5828 5827 5827 5826 5826 5825 5825 5824 5824 5823 5823 5822
5823 5824 5824 5825 5826 5827 5827 5828 5827 5827 5827 5827 5828 5827 5827 5826 5826 5826 5825 5825 5824 5824 5824 5824 5824 5823 5823 5822 5821 5821 5820 5820 5819 5818 5818 5817 5816 5816 5815 5815 5814 5813 5813
5813 5814 5815 5816 5817 5818 5818 5818 5818 5818 5819 5818 5818 5818 5818 5817 5817 5817 5817 5816 5816 5816 5815 5815 5815 5814 5813 5812 5812 5811 5811 5811 5810 5809 5809 5808 5807 5806 5805 5804 5804 5803 5803
5803 5805 5806 5806 5807 5808 5808 5809 5809 5809 5809 5809 5809 5809 5809 5808 5808 5808 5808 5807 5807 5807 5806 5806 5805 5805 5804 5803 5802 5801 5801 5800 5800 5799 5798 5797 5796 5795 5794 5793 5793 5793 5792
5793 5794 5795 5796 5797 5798 5798 5799 5799 5799 5799 5799 5799 5798 5799 5799 5799 5799 5798 5798 5798 5797 5797 5796 5795 5795 5794 5793 5792 5791 5790 5789 5789 5788 5787 5787 5786 5785 5784 5783 5782 5782 5782
5782 5783 5784 5785 5786 5787 5788 5788 5789 5789 5790 5789 5789 5789 5789 5789 5790 5789 5788 5788 5789 5788 5787 5786 5786 5785 5784 5783 5781 5780 5778 5777 5777 5776 5776 5776 5775 5774 5773 5772 5771 5771 5771
5771 5772 5773 5774 5775 5776 5777 5777 5778 5778 5779 5779 5780 5779 5780 5780 5780 5780 5779 5779 5779 5778 5777 5776 5776 5775 5774 5772 5771 5768 5767 5766 5765 5764 5764 5764 5763 5763 5762 5761 5760 5760 5759
5761 5761 5762 5763 5764 5764 5765 5766 5767 5767 5767 5768 5769 5769 5770 5770 5770 5770 5770 5769 5768 5767 5766 5766 5765 5764 5763 5762 5760 5758 5756 5755 5753 5753 5752 5752 5752 5751 5750 5749 5748 5747 5747
5749 5750 5751 5753 5753 5754 5754 5755 5755 5756 5757 5757 5758 5758 5758 5759 5760 5760 5759 5759 5758 5757 5756 5755 5754 5753 5751 5750 5748 5746 5745 5744 5742 5741 5741 5740 5739 5739 5738 5737 5736 5735 5735
5739 5740 5741 5742 5743 5743 5744 5744 5744 5745 5745 5746 5747 5747 5748 5748 5748 5748 5748 5747 5747 5746 5745 5744 5742 5741 5740 5738 5736 5735 5733 5732 5731 5730 5729 5728 5727 5727 5726 5725 5724 5724 5723
5728 5730 5730 5731 5732 5733 5733 5734 5734 5734 5734 5735 5735 5736 5737 5737 5737 5737 5736 5735 5735 5734 5732 5731 5731 5729 5728 5726 5725 5723 5722 5720 5719 5718 5717 5716 5716 5715 5714 5713 5712 5711 5710